QPF
0.11 0.10 0.11 0.11 0.10 0.08 0.08 0.08 0.07 0.08 0.06 0.05 0.03 0.01 0.01 0.01 0.02 0.04 0.08 0.06 0.03 0.02 0.03 0.05 0.06 0.06 0.05 0.05 0.05 0.05 0.04 0.04 0.03 0.02 0.02 0.02 0.02 0.02 0.01 0.02 0.02 0.01 0.01
0.09 0.08 0.09 0.09 0.09 0.08 0.09 0.07 0.06 0.07 0.07 0.07 0.04 0.02 0.01 0.01 0.01 0.01 0.06 0.08 0.05 0.02 0.03 0.04 0.06 0.06 0.07 0.06 0.06 0.06 0.07 0.06 0.05 0.03 0.03 0.02 0.03 0.02 0.01 0.02 0.02 0.02 0.01
0.06 0.05 0.07 0.08 0.08 0.07 0.06 0.05 0.04 0.04 0.04 0.04 0.04 0.03 0.01 0.01 0.01 0.02 0.03 0.06 0.06 0.04 0.03 0.03 0.04 0.05 0.08 0.08 0.08 0.08 0.07 0.07 0.08 0.05 0.04 0.03 0.03 0.03 0.02 0.02 0.01 0.01 0.01
0.05 0.05 0.05 0.06 0.05 0.05 0.06 0.05 0.03 0.03 0.03 0.04 0.04 0.03 0.02 0.02 0.01 0.01 0.02 0.04 0.05 0.04 0.07 0.06 0.04 0.04 0.05 0.07 0.09 0.11 0.11 0.12 0.11 0.09 0.07 0.05 0.04 0.03 0.03 0.02 0.02 0.01 0.01
0.07 0.07 0.06 0.05 0.04 0.04 0.05 0.04 0.03 0.03 0.03 0.03 0.02 0.02 0.01 0.01 0.02 0.01 0.02 0.03 0.03 0.04 0.06 0.07 0.05 0.04 0.05 0.08 0.11 0.13 0.17 0.18 0.15 0.13 0.12 0.10 0.07 0.05 0.03 0.02 0.02 0.01 0.01
0.06 0.05 0.04 0.03 0.02 0.04 0.04 0.03 0.02 0.02 0.01 0.01 0.00 0.00 0.00 0.00 0.00 0.01 0.01 0.01 0.02 0.02 0.04 0.06 0.08 0.06 0.06 0.08 0.11 0.12 0.16 0.18 0.16 0.15 0.15 0.14 0.12 0.10 0.06 0.03 0.02 0.02 0.01
0.04 0.04 0.03 0.02 0.01 0.02 0.03 0.02 0.01 0.01 0.01 0.00 0.00 0.00 0.00 0.00 0.00 0.00 0.00 0.00 0.01 0.01 0.03 0.05 0.07 0.08 0.08 0.07 0.07 0.09 0.12 0.15 0.16 0.16 0.15 0.14 0.14 0.12 0.10 0.07 0.04 0.02 0.02
0.03 0.02 0.01 0.01 0.01 0.01 0.02 0.02 0.02 0.01 0.00 0.00 0.00 0.00 0.00 0.01 0.00 0.00 0.00 0.00 0.00 0.01 0.02 0.03 0.05 0.05 0.04 0.09 0.07 0.06 0.09 0.13 0.15 0.15 0.12 0.11 0.12 0.11 0.10 0.10 0.08 0.05 0.03
0.03 0.02 0.02 0.02 0.01 0.01 0.02 0.02 0.01 0.01 0.01 0.00 0.00 0.00 0.00 0.01 0.01 0.00 0.00 0.00 0.00 0.01 0.01 0.02 0.03 0.04 0.04 0.05 0.08 0.07 0.06 0.09 0.14 0.18 0.16 0.14 0.12 0.10 0.10 0.10 0.10 0.08 0.06
0.02 0.02 0.02 0.02 0.02 0.02 0.02 0.01 0.01 0.01 0.01 0.01 0.00 0.00 0.00 0.00 0.00 0.01 0.00 0.00 0.00 0.00 0.01 0.01 0.02 0.03 0.03 0.03 0.06 0.07 0.05 0.04 0.07 0.14 0.15 0.14 0.14 0.12 0.10 0.10 0.12 0.12 0.09
0.01 0.01 0.02 0.03 0.03 0.02 0.02 0.01 0.01 0.01 0.01 0.00 0.00 0.00 0.00 0.00 0.00 0.00 0.01 0.01 0.00 0.00 0.00 0.00 0.01 0.01 0.01 0.01 0.03 0.04 0.04 0.04 0.03 0.05 0.08 0.09 0.11 0.11 0.12 0.12 0.12 0.13 0.12
0.01 0.01 0.01 0.01 0.02 0.02 0.02 0.02 0.01 0.01 0.01 0.00 0.00 0.00 0.00 0.00 0.00 0.00 0.00 0.00 0.00 0.00 0.00 0.00 0.00 0.01 0.01 0.01 0.01 0.01 0.02 0.01 0.02 0.02 0.03 0.05 0.06 0.07 0.08 0.10 0.12 0.14 0.14
0.01 0.01 0.01 0.01 0.01 0.01 0.01 0.01 0.01 0.00 0.00 0.01 0.00 0.00 0.00 0.00 0.00 0.00 0.00 0.00 0.00 0.00 0.00 0.00 0.00 0.00 0.00 0.01 0.01 0.00 0.00 0.00 0.00 0.00 0.01 0.02 0.03 0.04 0.05 0.07 0.09 0.12 0.15
0.00 0.00 0.00 0.00 0.00 0.00 0.00 0.00 0.00 0.00 0.00 0.00 0.00 0.00 0.00 0.00 0.00 0.00 0.00 0.00 0.00 0.00 0.00 0.00 0.00 0.00 0.00 0.00 0.00 0.00 0.00 0.00 0.00 0.00 0.00 0.01 0.02 0.03 0.04 0.04 0.06 0.09 0.12
0.00 0.00 0.00 0.00 0.00 0.00 0.00 0.00 0.00 0.00 0.00 0.00 0.00 0.00 0.00 0.00 0.00 0.00 0.00 0.00 0.00 0.00 0.00 0.00 0.00 0.00 0.00 0.00 0.00 0.00 0.01 0.00 0.00 0.00 0.00 0.00 0.01 0.02 0.03 0.04 0.04 0.04 0.07
0.00 0.00 0.00 0.00 0.00 0.00 0.00 0.00 0.00 0.00 0.00 0.00 0.00 0.00 0.00 0.00 0.00 0.00 0.00 0.00 0.00 0.00 0.00 0.00 0.00 0.00 0.00 0.00 0.00 0.00 0.00 0.00 0.00 0.00 0.00 0.00 0.00 0.00 0.01 0.02 0.03 0.03 0.03
0.00 0.00 0.00 0.00 0.00 0.00 0.00 0.00 0.00 0.00 0.00 0.00 0.00 0.00 0.00 0.00 0.00 0.00 0.00 0.00 0.00 0.00 0.00 0.00 0.00 0.00 0.00 0.00 0.00 0.00 0.00 0.00 0.00 0.00 0.00 0.00 0.00 0.00 0.00 0.01 0.01 0.02 0.02
0.00 0.00 0.00 0.01 0.00 0.00 0.00 0.00 0.00 0.00 0.00 0.00 0.00 0.00 0.00 0.00 0.01 0.01 0.01 0.00 0.00 0.00 0.00 0.00 0.00 0.00 0.00 0.00 0.00 0.00 0.00 0.00 0.00 0.00 0.00 0.00 0.00 0.00 0.00 0.00 0.01 0.01 0.01
0.00 0.00 0.00 0.00 0.00 0.01 0.00 0.00 0.01 0.00 0.00 0.00 0.00 0.00 0.00 0.00 0.00 0.01 0.01 0.00 0.00 0.00 0.00 0.00 0.00 0.00 0.00 0.00 0.00 0.00 0.00 0.00 0.00 0.00 0.00 0.00 0.00 0.00 0.00 0.00 0.00 0.00 0.01
0.00 0.01 0.00 0.00 0.01 0.01 0.01 0.01 0.01 0.01 0.01 0.00 0.00 0.00 0.00 0.00 0.00 0.01 0.01 0.01 0.00 0.00 0.00 0.00 0.00 0.00 0.00 0.00 0.00 0.00 0.00 0.00 0.00 0.00 0.00 0.00 0.00 0.00 0.00 0.00 0.00 0.00 0.00
0.01 0.00 0.00 0.00 0.00 0.00 0.00 0.00 0.01 0.01 0.00 0.00 0.00 0.00 0.00 0.00 0.00 0.00 0.00 0.00 0.00 0.00 0.00 0.01 0.00 0.00 0.00 0.01 0.01 0.01 0.01 0.00 0.00 0.00 0.00 0.00 0.00 0.01 0.01 0.00 0.00 0.00 0.00
0.00 0.00 0.00 0.00 0.00 0.00 0.00 0.00 0.00 0.00 0.00 0.00 0.00 0.00 0.00 0.00 0.00 0.00 0.00 0.00 0.00 0.00 0.00 0.00 0.00 0.00 0.01 0.01 0.01 0.01 0.01 0.01 0.01 0.00 0.01 0.00 0.00 0.00 0.01 0.01 0.00 0.00 0.00
0.00 0.00 0.00 0.00 0.00 0.00 0.00 0.00 0.00 0.00 0.00 0.00 0.00 0.00 0.00 0.00 0.00 0.00 0.00 0.00 0.00 0.00 0.00 0.00 0.00 0.00 0.00 0.01 0.02 0.02 0.02 0.02 0.01 0.01 0.01 0.00 0.00 0.00 0.00 0.00 0.00 0.00 0.00
0.01 0.01 0.01 0.00 0.00 0.00 0.00 0.00 0.00 0.00 0.00 0.00 0.00 0.00 0.00 0.00 0.00 0.00 0.01 0.01 0.01 0.01 0.01 0.00 0.00 0.00 0.01 0.01 0.02 0.01 0.01 0.01 0.01 0.00 0.01 0.00 0.00 0.00 0.00 0.00 0.00 0.00 0.00
0.02 0.01 0.01 0.01 0.01 0.01 0.01 0.00 0.00 0.00 0.00 0.00 0.00 0.00 0.00 0.00 0.00 0.00 0.00 0.00 0.00 0.01 0.00 0.00 0.00 0.00 0.00 0.00 0.00 0.00 0.00 0.00 0.00 0.00 0.01 0.01 0.00 0.00 0.00 0.00 0.00 0.00 0.00
0.03 0.02 0.02 0.02 0.02 0.02 0.02 0.01 0.02 0.01 0.00 0.00 0.01 0.01 0.01 0.01 0.00 0.00 0.00 0.01 0.01 0.01 0.01 0.01 0.01 0.01 0.00 0.00 0.00 0.00 0.00 0.00 0.00 0.00 0.01 0.02 0.01 0.02 0.01 0.00 0.00 0.01 0.01
MSLP
1016.18 1016.53 1016.78 1016.95 1017.07 1017.16 1017.24 1017.33 1017.43 1017.50 1017.53 1017.52 1017.47 1017.40 1017.34 1017.33 1017.40 1017.56 1017.81 1018.12 1018.46 1018.79 1019.08 1019.32 1019.51 1019.65 1019.78 1019.92 1020.07 1020.25 1020.45 1020.67 1020.90 1021.12 1021.33 1021.55 1021.77 1021.99 1022.23 1022.48 1022.74 1022.98 1023.21
1016.04 1016.40 1016.66 1016.84 1016.97 1017.07 1017.17 1017.28 1017.40 1017.50 1017.58 1017.63 1017.63 1017.60 1017.56 1017.53 1017.56 1017.65 1017.82 1018.04 1018.31 1018.60 1018.87 1019.13 1019.34 1019.53 1019.70 1019.86 1020.01 1020.17 1020.35 1020.53 1020.72 1020.91 1021.12 1021.33 1021.57 1021.82 1022.08 1022.35 1022.63 1022.89 1023.13
1015.93 1016.28 1016.55 1016.75 1016.91 1017.03 1017.16 1017.29 1017.44 1017.58 1017.71 1017.80 1017.84 1017.84 1017.81 1017.77 1017.74 1017.75 1017.82 1017.95 1018.14 1018.36 1018.61 1018.86 1019.10 1019.33 1019.53 1019.70 1019.86 1020.01 1020.15 1020.29 1020.44 1020.60 1020.78 1020.99 1021.23 1021.50 1021.80 1022.10 1022.41 1022.70 1022.98
1015.84 1016.18 1016.47 1016.69 1016.88 1017.04 1017.20 1017.36 1017.53 1017.71 1017.87 1018.00 1018.07 1018.09 1018.06 1018.00 1017.91 1017.85 1017.82 1017.85 1017.95 1018.10 1018.31 1018.54 1018.79 1019.04 1019.26 1019.45 1019.62 1019.75 1019.86 1019.96 1020.07 1020.19 1020.34 1020.54 1020.78 1021.06 1021.38 1021.72 1022.06 1022.40 1022.72
1015.78 1016.10 1016.40 1016.66 1016.89 1017.09 1017.27 1017.46 1017.66 1017.85 1018.04 1018.18 1018.28 1018.32 1018.29 1018.20 1018.07 1017.94 1017.83 1017.77 1017.78 1017.86 1018.01 1018.21 1018.45 1018.70 1018.93 1019.14 1019.30 1019.42 1019.51 1019.57 1019.64 1019.72 1019.84 1020.02 1020.25 1020.53 1020.86 1021.23 1021.61 1021.99 1022.36
1015.72 1016.04 1016.35 1016.64 1016.91 1017.14 1017.36 1017.57 1017.78 1017.98 1018.17 1018.33 1018.44 1018.48 1018.46 1018.37 1018.22 1018.04 1017.87 1017.73 1017.66 1017.67 1017.76 1017.92 1018.13 1018.37 1018.61 1018.81 1018.97 1019.08 1019.15 1019.19 1019.22 1019.26 1019.35 1019.49 1019.70 1019.97 1020.30 1020.67 1021.07 1021.48 1021.89
1015.68 1015.98 1016.31 1016.63 1016.93 1017.19 1017.44 1017.66 1017.86 1018.06 1018.25 1018.41 1018.53 1018.59 1018.58 1018.50 1018.36 1018.16 1017.96 1017.78 1017.64 1017.59 1017.62 1017.73 1017.91 1018.13 1018.35 1018.55 1018.70 1018.80 1018.86 1018.87 1018.88 1018.89 1018.94 1019.04 1019.21 1019.45 1019.75 1020.11 1020.50 1020.92 1021.35
1015.65 1015.94 1016.27 1016.61 1016.93 1017.23 1017.48 1017.70 1017.90 1018.09 1018.26 1018.43 1018.56 1018.65 1018.68 1018.63 1018.52 1018.34 1018.13 1017.93 1017.76 1017.66 1017.63 1017.70 1017.83 1018.01 1018.21 1018.39 1018.54 1018.63 1018.68 1018.68 1018.66 1018.65 1018.66 1018.72 1018.84 1019.03 1019.28 1019.59 1019.95 1020.35 1020.77
1015.64 1015.91 1016.24 1016.59 1016.93 1017.23 1017.49 1017.70 1017.89 1018.06 1018.23 1018.40 1018.55 1018.68 1018.76 1018.78 1018.71 1018.58 1018.40 1018.20 1018.02 1017.88 1017.81 1017.82 1017.90 1018.04 1018.20 1018.36 1018.49 1018.58 1018.62 1018.62 1018.59 1018.55 1018.53 1018.55 1018.61 1018.73 1018.92 1019.16 1019.46 1019.81 1020.20
1015.65 1015.90 1016.23 1016.58 1016.92 1017.22 1017.46 1017.66 1017.84 1018.00 1018.16 1018.34 1018.53 1018.71 1018.85 1018.94 1018.95 1018.88 1018.75 1018.58 1018.39 1018.23 1018.12 1018.08 1018.11 1018.19 1018.31 1018.44 1018.55 1018.63 1018.66 1018.65 1018.61 1018.56 1018.51 1018.49 1018.49 1018.55 1018.66 1018.82 1019.04 1019.32 1019.65
1015.69 1015.93 1016.24 1016.58 1016.91 1017.19 1017.43 1017.61 1017.77 1017.92 1018.09 1018.29 1018.51 1018.74 1018.95 1019.12 1019.21 1019.21 1019.13 1018.99 1018.81 1018.64 1018.50 1018.40 1018.37 1018.40 1018.47 1018.55 1018.63 1018.69 1018.71 1018.70 1018.66 1018.59 1018.53 1018.47 1018.44 1018.43 1018.48 1018.56 1018.71 1018.91 1019.17
1015.76 1015.99 1016.28 1016.60 1016.91 1017.18 1017.39 1017.56 1017.70 1017.85 1018.02 1018.24 1018.50 1018.78 1019.05 1019.28 1019.44 1019.51 1019.48 1019.38 1019.21 1019.03 1018.85 1018.71 1018.63 1018.59 1018.60 1018.63 1018.67 1018.70 1018.70 1018.68 1018.63 1018.57 1018.50 1018.42 1018.36 1018.33 1018.32 1018.35 1018.43 1018.56 1018.75
1015.85 1016.07 1016.35 1016.65 1016.94 1017.18 1017.37 1017.53 1017.66 1017.80 1017.98 1018.21 1018.49 1018.80 1019.12 1019.40 1019.61 1019.73 1019.75 1019.67 1019.52 1019.32 1019.12 1018.94 1018.79 1018.70 1018.64 1018.61 1018.60 1018.59 1018.57 1018.53 1018.48 1018.42 1018.35 1018.28 1018.22 1018.17 1018.14 1018.14 1018.18 1018.26 1018.39
1015.94 1016.17 1016.44 1016.72 1016.99 1017.21 1017.38 1017.52 1017.64 1017.77 1017.94 1018.17 1018.46 1018.79 1019.13 1019.44 1019.68 1019.83 1019.87 1019.81 1019.67 1019.47 1019.25 1019.03 1018.84 1018.69 1018.57 1018.48 1018.42 1018.36 1018.30 1018.24 1018.18 1018.12 1018.06 1018.01 1017.96 1017.93 1017.91 1017.91 1017.93 1017.99 1018.08
1016.02 1016.26 1016.53 1016.81 1017.06 1017.26 1017.42 1017.54 1017.64 1017.76 1017.92 1018.14 1018.42 1018.73 1019.07 1019.37 1019.62 1019.78 1019.83 1019.79 1019.65 1019.46 1019.23 1018.99 1018.77 1018.57 1018.40 1018.26 1018.13 1018.02 1017.92 1017.84 1017.76 1017.70 1017.65 1017.62 1017.61 1017.60 1017.61 1017.63 1017.67 1017.72 1017.80
1016.05 1016.31 1016.60 1016.88 1017.13 1017.33 1017.48 1017.58 1017.67 1017.77 1017.90 1018.09 1018.34 1018.62 1018.92 1019.20 1019.44 1019.59 1019.64 1019.61 1019.49 1019.31 1019.09 1018.85 1018.61 1018.39 1018.18 1017.99 1017.81 1017.65 1017.51 1017.38 1017.28 1017.21 1017.17 1017.16 1017.17 1017.21 1017.25 1017.30 1017.36 1017.43 1017.52
1015.99 1016.30 1016.62 1016.92 1017.18 1017.38 1017.52 1017.62 1017.69 1017.77 1017.87 1018.02 1018.21 1018.45 1018.70 1018.94 1019.14 1019.28 1019.34 1019.31 1019.21 1019.06 1018.87 1018.65 1018.42 1018.19 1017.97 1017.75 1017.53 1017.32 1017.13 1016.97 1016.83 1016.74 1016.69 1016.68 1016.71 1016.77 1016.84 1016.92 1017.01 1017.09 1017.19
1015.83 1016.18 1016.54 1016.87 1017.16 1017.38 1017.53 1017.62 1017.68 1017.73 1017.80 1017.91 1018.05 1018.23 1018.42 1018.62 1018.78 1018.90 1018.95 1018.94 1018.88 1018.76 1018.61 1018.43 1018.24 1018.02 1017.80 1017.56 1017.32 1017.08 1016.85 1016.64 1016.47 1016.34 1016.27 1016.24 1016.27 1016.32 1016.40 1016.49 1016.58 1016.68 1016.77
1015.52 1015.93 1016.34 1016.71 1017.03 1017.28 1017.45 1017.55 1017.61 1017.64 1017.68 1017.74 1017.83 1017.96 1018.10 1018.24 1018.37 1018.47 1018.53 1018.54 1018.51 1018.44 1018.34 1018.22 1018.06 1017.89 1017.68 1017.45 1017.20 1016.94 1016.68 1016.43 1016.21 1016.04 1015.93 1015.86 1015.85 1015.88 1015.93 1016.00 1016.08 1016.16 1016.25
1015.05 1015.52 1015.98 1016.41 1016.77 1017.05 1017.25 1017.37 1017.43 1017.46 1017.48 1017.51 1017.56 1017.63 1017.73 1017.83 1017.93 1018.02 1018.08 1018.12 1018.12 1018.10 1018.06 1017.99 1017.89 1017.75 1017.58 1017.37 1017.12 1016.85 1016.57 1016.29 1016.04 1015.82 1015.65 1015.53 1015.46 1015.43 1015.44 1015.46 1015.50 1015.55 1015.61
1014.44 1014.96 1015.47 1015.94 1016.35 1016.67 1016.90 1017.05 1017.14 1017.17 1017.18 1017.19 1017.21 1017.26 1017.32 1017.39 1017.47 1017.54 1017.61 1017.66 1017.70 1017.72 1017.72 1017.70 1017.64 1017.55 1017.42 1017.23 1017.00 1016.74 1016.45 1016.16 1015.87 1015.61 1015.39 1015.21 1015.07 1014.97 1014.90 1014.86 1014.84 1014.84 1014.86
1013.72 1014.27 1014.81 1015.32 1015.77 1016.14 1016.41 1016.60 1016.71 1016.76 1016.78 1016.79 1016.80 1016.82 1016.85 1016.90 1016.96 1017.03 1017.09 1017.15 1017.21 1017.26 1017.29 1017.30 1017.28 1017.23 1017.12 1016.97 1016.77 1016.52 1016.24 1015.94 1015.65 1015.36 1015.09 1014.86 1014.65 1014.48 1014.34 1014.22 1014.12 1014.06 1014.04
1012.93 1013.50 1014.06 1014.60 1015.08 1015.49 1015.80 1016.03 1016.17 1016.25 1016.29 1016.31 1016.31 1016.32 1016.35 1016.38 1016.42 1016.47 1016.52 1016.58 1016.63 1016.68 1016.73 1016.75 1016.75 1016.72 1016.64 1016.51 1016.34 1016.12 1015.86 1015.58 1015.29 1014.99 1014.71 1014.43 1014.18 1013.94 1013.73 1013.54 1013.38 1013.26 1013.18
1012.16 1012.72 1013.29 1013.84 1014.35 1014.78 1015.13 1015.39 1015.58 1015.69 1015.75 1015.77 1015.78 1015.79 1015.79 1015.80 1015.82 1015.85 1015.88 1015.91 1015.95 1015.99 1016.02 1016.04 1016.04 1016.01 1015.94 1015.84 1015.69 1015.50 1015.28 1015.03 1014.76 1014.48 1014.19 1013.91 1013.63 1013.36 1013.10 1012.86 1012.64 1012.47 1012.34
1011.48 1012.02 1012.58 1013.13 1013.65 1014.10 1014.48 1014.77 1014.98 1015.12 1015.20 1015.23 1015.24 1015.23 1015.21 1015.20 1015.18 1015.18 1015.17 1015.17 1015.18 1015.19 1015.19 1015.18 1015.17 1015.13 1015.06 1014.97 1014.84 1014.68 1014.50 1014.29 1014.05 1013.81 1013.55 1013.29 1013.01 1012.73 1012.45 1012.18 1011.94 1011.73 1011.56
1010.96 1011.47 1012.01 1012.54 1013.06 1013.52 1013.92 1014.23 1014.46 1014.61 1014.69 1014.72 1014.71 1014.68 1014.63 1014.58 1014.52 1014.47 1014.42 1014.38 1014.34 1014.31 1014.27 1014.23 1014.19 1014.13 1014.05 1013.96 1013.85 1013.72 1013.56 1013.40 1013.21 1013.01 1012.80 1012.57 1012.33 1012.07 1011.80 1011.53 1011.27 1011.04 1010.85
Thickness
5742 5740 5738 5736 5735 5734 5734 5734 5734 5734 5734 5734 5735 5736 5736 5736 5735 5735 5733 5731 5730 5729 5729 5727 5726 5724 5723 5722 5721 5720 5719 5719 5718 5717 5716 5714 5713 5712 5712 5711 5710 5710 5709
5740 5739 5737 5735 5734 5733 5732 5732 5732 5732 5732 5732 5733 5734 5734 5734 5734 5733 5732 5730 5729 5728 5728 5727 5726 5724 5723 5721 5720 5719 5719 5718 5717 5716 5715 5713 5712 5711 5710 5710 5709 5709 5708
5739 5738 5736 5734 5733 5732 5732 5731 5732 5732 5731 5732 5732 5733 5733 5733 5732 5732 5730 5729 5727 5727 5727 5726 5724 5723 5722 5721 5719 5718 5717 5717 5716 5715 5714 5712 5711 5710 5709 5709 5708 5708 5707
5738 5736 5735 5733 5732 5732 5731 5731 5731 5730 5729 5730 5730 5731 5732 5732 5731 5730 5730 5728 5727 5727 5726 5724 5723 5722 5721 5719 5718 5717 5716 5715 5714 5714 5713 5711 5710 5709 5708 5708 5707 5707 5706
5737 5736 5734 5733 5732 5731 5731 5731 5729 5728 5727 5727 5728 5730 5731 5731 5730 5730 5729 5728 5727 5726 5725 5723 5721 5721 5719 5718 5717 5715 5714 5713 5712 5712 5711 5710 5709 5708 5707 5706 5706 5705 5705
5736 5735 5733 5732 5732 5731 5729 5729 5727 5727 5726 5726 5728 5729 5729 5730 5730 5729 5728 5727 5726 5725 5724 5722 5720 5719 5717 5716 5715 5714 5712 5712 5711 5710 5709 5708 5707 5706 5706 5705 5704 5704 5704
5735 5734 5733 5732 5731 5729 5728 5727 5726 5725 5726 5727 5724 5723 5727 5730 5729 5727 5726 5725 5724 5723 5722 5720 5718 5716 5715 5714 5713 5712 5710 5710 5709 5708 5707 5707 5706 5705 5704 5703 5703 5703 5703
5734 5734 5732 5731 5730 5728 5727 5726 5725 5723 5724 5725 5721 5717 5716 5718 5722 5727 5724 5722 5721 5720 5719 5718 5715 5714 5713 5711 5710 5709 5708 5707 5706 5705 5705 5705 5704 5703 5703 5702 5702 5702 5702
5733 5733 5732 5730 5729 5728 5726 5725 5723 5722 5719 5721 5722 5716 5709 5706 5712 5718 5720 5719 5717 5716 5715 5714 5713 5711 5710 5709 5707 5705 5704 5703 5702 5702 5702 5701 5701 5701 5700 5700 5700 5700 5701
5733 5732 5731 5729 5728 5727 5725 5725 5722 5722 5719 5717 5718 5718 5715 5711 5704 5704 5711 5714 5714 5712 5711 5711 5709 5707 5706 5705 5703 5701 5699 5698 5698 5697 5697 5697 5698 5698 5698 5698 5698 5699 5699
5732 5731 5730 5728 5727 5726 5724 5723 5721 5720 5719 5716 5715 5715 5714 5712 5709 5703 5700 5704 5708 5710 5709 5707 5705 5704 5702 5701 5698 5696 5695 5694 5693 5693 5693 5693 5694 5694 5695 5695 5696 5697 5697
5731 5731 5729 5728 5726 5725 5723 5721 5719 5718 5716 5715 5713 5713 5710 5707 5705 5703 5699 5699 5700 5704 5706 5704 5702 5700 5698 5697 5694 5691 5690 5689 5688 5688 5688 5688 5689 5690 5691 5692 5693 5694 5695
5731 5730 5730 5727 5726 5724 5722 5720 5718 5716 5715 5713 5711 5710 5709 5707 5706 5703 5698 5695 5695 5698 5701 5701 5700 5697 5695 5692 5689 5687 5685 5684 5683 5683 5683 5683 5684 5685 5686 5687 5689 5690 5692
5733 5731 5729 5726 5724 5723 5722 5719 5718 5716 5713 5711 5710 5707 5705 5705 5704 5701 5697 5692 5688 5689 5693 5695 5697 5694 5691 5687 5685 5682 5681 5680 5678 5678 5678 5678 5679 5680 5681 5682 5684 5685 5687
5733 5731 5728 5725 5723 5722 5720 5717 5715 5713 5711 5709 5707 5705 5702 5702 5701 5699 5696 5692 5685 5679 5680 5687 5688 5689 5687 5683 5681 5678 5677 5675 5674 5673 5673 5674 5674 5675 5676 5677 5679 5680 5682
5732 5729 5726 5724 5722 5720 5717 5715 5713 5712 5709 5706 5704 5701 5699 5698 5697 5695 5693 5690 5687 5680 5676 5680 5682 5684 5682 5679 5677 5674 5673 5671 5671 5670 5670 5670 5670 5670 5671 5672 5673 5675 5676
5729 5727 5724 5722 5720 5717 5715 5712 5710 5709 5706 5704 5702 5699 5696 5695 5692 5690 5688 5686 5683 5680 5673 5675 5677 5678 5676 5674 5672 5670 5669 5668 5668 5668 5668 5667 5667 5666 5667 5667 5668 5669 5671
5727 5725 5722 5720 5718 5715 5713 5710 5707 5707 5704 5701 5698 5696 5693 5692 5688 5685 5683 5681 5679 5677 5672 5669 5670 5671 5671 5671 5669 5667 5666 5666 5666 5666 5665 5664 5663 5662 5662 5662 5663 5664 5665
5725 5723 5721 5718 5715 5714 5711 5708 5706 5703 5701 5699 5696 5693 5690 5687 5684 5682 5679 5676 5674 5674 5671 5667 5665 5666 5666 5666 5665 5663 5662 5661 5661 5661 5662 5661 5659 5658 5657 5658 5658 5659 5660
5723 5721 5718 5716 5713 5711 5709 5706 5703 5700 5697 5695 5693 5690 5687 5684 5681 5678 5675 5672 5670 5667 5665 5663 5661 5661 5661 5662 5660 5656 5655 5655 5655 5656 5656 5656 5655 5654 5653 5654 5654 5654 5655
5721 5718 5715 5712 5710 5708 5706 5703 5699 5697 5693 5690 5689 5687 5684 5682 5679 5675 5672 5669 5665 5661 5658 5656 5655 5655 5654 5652 5650 5650 5647 5647 5648 5649 5649 5649 5649 5649 5648 5648 5649 5649 5650
5718 5716 5712 5709 5707 5706 5703 5700 5696 5693 5690 5686 5684 5682 5680 5678 5675 5672 5668 5665 5660 5656 5653 5650 5648 5646 5646 5646 5645 5642 5640 5638 5637 5641 5639 5640 5641 5641 5642 5644 5645 5645 5645
5715 5712 5709 5706 5703 5701 5697 5694 5690 5687 5684 5681 5679 5677 5676 5677 5673 5670 5665 5661 5656 5652 5649 5645 5642 5641 5640 5639 5637 5635 5632 5630 5629 5631 5629 5630 5633 5633 5636 5638 5639 5640 5640
5711 5707 5704 5702 5699 5697 5692 5688 5684 5680 5678 5676 5674 5673 5670 5669 5667 5664 5661 5658 5654 5651 5648 5643 5640 5639 5637 5635 5632 5629 5626 5625 5626 5626 5625 5623 5626 5628 5631 5633 5633 5634 5634
5708 5704 5700 5697 5695 5692 5687 5683 5678 5675 5672 5671 5670 5669 5667 5665 5662 5658 5654 5651 5649 5647 5646 5644 5642 5639 5636 5632 5628 5623 5620 5617 5618 5619 5620 5619 5621 5622 5624 5625 5627 5627 5628
5703 5699 5696 5693 5690 5687 5683 5677 5671 5670 5667 5667 5666 5665 5663 5661 5658 5654 5649 5646 5642 5642 5640 5639 5636 5634 5631 5628 5624 5618 5615 5611 5611 5612 5615 5613 5614 5613 5613 5618 5619 5620 5621